Tracking 28790 objects as of 19-Apr-2024
HD Live streaming from Space Station
objects crossing your sky now

COSMOS 2251 DEB

Track COSMOS 2251 DEB now!
10-day predictions


NORAD ID: 34989
Int'l Code: 1993-036AFM
Perigee: 648.1 km
Apogee: 678.3 km
Inclination: 74.0 °
Period: 97.9 minutes
Semi major axis: 7034 km
RCS: 0.05 m2 (small)
Launch date: June 16, 1993
Source: Commonwealth of Independent States (former USSR) (CIS)
Launch site: PLESETSK MISSILE AND SPACE COMPLEX (PKMTR)

Note: This is SATELLITE DEBRIS
Your satellite tracking list
Your tracking list is empty




NASA's NSSDC Master Catalog

Two Line Element Set (TLE):
1 34989U 93036AFM 24110.17545256  .00029931  00000-0  47818-2 0  9991
2 34989  74.0177  19.7818 0021492 288.0995  71.7835 14.71567289791451
Source of the keplerian elements: AFSPC